Location: Ammerl�gen
(47.2167°N, 9.6000°E)
Time: 16:56:57
(UTC+00:00)

Cosmos 2151 - Pass Details

Date: 21 April 2021
Orbit: 582 x 600 km, 82.5° (Epoch: 07 May)

Event Time Altitude Azimuth Distance (km) Brightness Sun altitude
Rises 19:26:01 0° 356° (N) 2,861 7.0 -11.1°
Reaches altitude 10° 19:28:21 10° 4° (N) 1,952 6.0 -11.4°
Maximum altitude 19:32:26 40° 75° (ENE) 886 3.5 -12.0°
Enters shadow 19:35:15 18° 138° (SE) 1,489 4.4 -12.4°
